Stations météo

réclame
Mon MeteoGroup
South Uist Range, Grande-Bretagne (3023): Température de l'air & dewpoint: 11.01.2019 00:00:00 - 17.01.2019 00:00:00 (GMT)South Uist Range, Grande-Bretagne (3023): Température de l'air -20cm & Température de l'air -100cm: 11.01.2019 00:00:00 - 17.01.2019 00:00:00 (GMT)South Uist Range, Grande-Bretagne (3023): Vitesse du vent & gusts: 11.01.2019 00:00:00 - 17.01.2019 00:00:00 (GMT)South Uist Range, Grande-Bretagne (3023): Direction du vent: 11.01.2019 00:00:00 - 17.01.2019 00:00:00 (GMT)South Uist Range, Grande-Bretagne (3023): reduced air pressure: 11.01.2019 00:00:00 - 17.01.2019 00:00:00 (GMT)South Uist Range, Grande-Bretagne (3023): visibility: 11.01.2019 00:00:00 - 17.01.2019 00:00:00 (GMT)South Uist Range, Grande-Bretagne (3023): Quantités de précipitations: 11.01.2019 00:00:00 - 17.01.2019 00:00:00 (GMT)
Date & Time tt [°C] td [°C] tt -20cm [°C] tt -100cm [°C] ff [km/h] ff [knt] fx [km/h] fx [knt] dd ppp [hPa] vv [km] rr [mm]
17.01.2019 00:00:00 2,6 -0,8 - - 29 16 67 36 N 1008,6 18 0,0
16.01.2019 23:00:00 1,9 0,2 - - 39 21 78 42 NNE 1007,7 23 0,2
16.01.2019 22:00:00 3,3 -1,3 - - 34 18 78 42 N 1006,7 15 0,0
16.01.2019 21:00:00 3,3 -2,3 - - 41 22 61 33 N 1006,0 30 0,0
16.01.2019 20:00:00 3,5 -1,5 - - 46 25 61 33 N 1004,3 23 0,0
16.01.2019 19:00:00 3,9 0,5 - - 42 23 70 38 N 1002,5 3,6 0,0
16.01.2019 18:00:00 4,0 2,3 - - 44 24 70 38 NNE 1000,6 28 2,2
16.01.2019 17:00:00 3,8 2,1 - - 37 20 57 31 NNW 998,7 7 0,2
16.01.2019 16:00:00 4,0 1,7 - - 15 8 - - NE 997,2 25 0,2
16.01.2019 15:00:00 4,9 1,1 - - 21 11 - - WNW 996,4 16 1,8
16.01.2019 14:00:00 5,1 2,5 - - 2 1 - - ENE 996,0 26 0,0
16.01.2019 13:00:00 4,7 2,3 - - 18 10 - - N 995,6 17 0,0
16.01.2019 12:00:00 5,8 2,3 - - 18 10 59 32 NW 995,0 40 0,2
16.01.2019 11:00:00 5,9 2,9 - - 31 17 50 27 NW 994,7 35 0,0
16.01.2019 10:00:00 5,7 2,8 - - 29 16 50 27 NW 994,1 40 0,2
16.01.2019 09:00:00 4,6 2,7 7,7 8,0 41 22 57 31 NW 993,9 10 0,0
16.01.2019 08:00:00 5,1 3,4 - - 34 18 52 28 NW 993,0 18 0,8
16.01.2019 07:00:00 4,5 3,2 - - 44 24 61 33 W 992,4 3,9 1,4
16.01.2019 06:00:00 5,1 3,8 - - 15 8 - - W 992,1 27 1,6
16.01.2019 05:00:00 5,4 3,7 - - 13 7 - - WSW 992,5 10 0,0
16.01.2019 04:00:00 5,6 4,0 - - 21 11 - - W 993,5 7 2,2
16.01.2019 03:00:00 5,7 4,2 - - 9 5 - - WSW 994,1 6 3,0
16.01.2019 02:00:00 7,4 4,2 - - 15 8 - - WSW 994,2 12 0,0
16.01.2019 01:00:00 7,8 4,2 - - 21 11 - - W 995,0 28 0,0
16.01.2019 00:00:00 7,6 4,9 - - 22 12 - - W 995,4 16 0,0
15.01.2019 23:00:00 7,7 5,1 - - 34 18 50 27 W 995,9 21 0,0
15.01.2019 22:00:00 7,8 6,3 - - 29 16 52 28 W 996,3 12 0,0
15.01.2019 21:00:00 8,8 7,0 - - 42 23 63 34 W 996,1 12 0,2
15.01.2019 20:00:00 9,6 8,7 - - 48 26 67 36 SW 995,7 8 0,4
15.01.2019 19:00:00 9,5 8,9 - - 52 28 67 36 SW 996,5 4,4 0,0
15.01.2019 18:00:00 9,2 8,5 - - 50 27 63 34 SSW 997,4 2,5 0,0
15.01.2019 17:00:00 9,3 7,7 - - 50 27 67 36 SW 998,5 8 0,0
15.01.2019 16:00:00 9,2 7,5 - - 44 24 67 36 SW 999,7 9 0,2
15.01.2019 15:00:00 8,9 7,8 - - 48 26 76 41 SW 1000,8 3,8 0,0
15.01.2019 14:00:00 9,7 7,6 - - 48 26 65 35 SW 1001,8 10 0,0
15.01.2019 13:00:00 10,0 8,5 - - 52 28 67 36 SW 1003,0 6 0,0
15.01.2019 12:00:00 9,9 9,1 - - 44 24 55 30 SW 1003,7 6 0,0
15.01.2019 11:00:00 8,6 8,4 - - 18 10 - - S 1004,5 27 0,4
15.01.2019 10:00:00 7,8 7,5 - - 13 7 - - S 1005,2 4,4 0,4
15.01.2019 09:00:00 7,6 7,3 7,7 8,2 11 6 - - WSW 1006,0 2,2 0,8
15.01.2019 08:00:00 7,6 7,2 - - 9 5 - - WNW 1006,3 1,9 1,0
15.01.2019 07:00:00 7,6 7,2 - - 16 9 - - W 1006,8 3,7 1,2
15.01.2019 06:00:00 7,9 7,5 - - 21 11 - - W 1007,3 3,0 1,0
15.01.2019 05:00:00 8,5 8,1 - - 24 13 - - W 1007,7 2,8 0,6
15.01.2019 04:00:00 9,0 8,5 - - 22 12 - - W 1008,2 2,3 0,2
15.01.2019 03:00:00 9,8 9,2 - - 35 19 55 30 W 1008,5 8 0,0
15.01.2019 02:00:00 9,9 9,3 - - 35 19 52 28 WSW 1008,7 9 0,0
15.01.2019 01:00:00 9,8 9,5 - - 41 22 55 30 WSW 1008,8 6 0,0
15.01.2019 00:00:00 9,7 9,3 - - 44 24 57 31 WSW 1008,9 2,9 0,2
14.01.2019 23:00:00 9,5 8,9 - - 44 24 54 29 SW 1009,4 3,2 0,2
14.01.2019 22:00:00 9,7 8,6 - - 41 22 50 27 SW 1010,0 8 0,0
14.01.2019 21:00:00 9,0 8,3 - - 34 18 50 27 SW 1010,9 8 0,0
14.01.2019 20:00:00 9,2 8,0 - - 37 20 48 26 WSW 1011,6 9 0,0
14.01.2019 19:00:00 8,9 7,9 - - 34 18 46 25 WSW 1012,1 13 0,0
14.01.2019 18:00:00 8,6 7,7 - - 39 21 52 28 WSW 1012,6 21 0,2
14.01.2019 17:00:00 8,5 7,7 - - 31 17 - - SW 1013,3 14 0,0
14.01.2019 16:00:00 7,9 6,8 - - 35 19 - - SW 1014,0 5 0,0
14.01.2019 15:00:00 8,1 6,2 - - 31 17 - - SW 1015,1 9 0,0
14.01.2019 14:00:00 8,1 5,1 - - 28 15 - - WSW 1015,8 13 0,0
14.01.2019 13:00:00 7,6 4,6 - - 26 14 - - W 1016,7 15 0,0
14.01.2019 12:00:00 7,4 4,7 - - 28 15 - - W 1017,2 15 -
14.01.2019 11:00:00 7,7 3,4 - - 24 13 - - WNW 1017,4 17 0,0
14.01.2019 10:00:00 7,1 4,1 - - 22 12 - - WNW 1017,3 14 0,2
14.01.2019 09:00:00 7,2 4,4 7,7 8,0 28 15 - - WNW 1017,4 20 0,0
14.01.2019 08:00:00 6,3 5,3 - - 22 12 - - W 1017,0 22 0,0
14.01.2019 07:00:00 4,3 3,4 - - 9 5 - - S 1017,3 6 0,2
14.01.2019 06:00:00 3,4 2,4 - - 0 0 - - N 1017,2 27 0,0
14.01.2019 05:00:00 4,7 3,4 - - 0 0 - - N 1017,2 18 0,0
14.01.2019 04:00:00 4,9 3,2 - - 9 5 - - N 1016,9 19 0,0
14.01.2019 03:00:00 4,3 2,3 - - 9 5 - - N 1016,6 13 0,0
14.01.2019 02:00:00 7,7 3,4 - - 31 17 - - NW 1015,7 12 0,0
14.01.2019 01:00:00 7,5 2,4 - - 31 17 - - NW 1015,3 16 0,2
14.01.2019 00:00:00 7,4 3,9 - - 31 17 50 27 NW 1014,8 14 0,0
13.01.2019 23:00:00 7,9 4,2 - - 35 19 50 27 NW 1013,8 12 0,0
13.01.2019 22:00:00 7,8 3,8 - - 37 20 55 30 NW 1013,1 13 0,0
13.01.2019 21:00:00 7,7 4,4 - - 35 19 61 33 NW 1012,2 12 0,2
13.01.2019 20:00:00 7,9 4,6 - - 39 21 61 33 NW 1011,3 13 0,2
13.01.2019 19:00:00 7,8 4,4 - - 41 22 61 33 NW 1010,3 15 0,0
13.01.2019 18:00:00 7,2 4,1 - - 46 25 74 40 NW 1009,3 5 0,0
13.01.2019 17:00:00 8,2 5,4 - - 48 26 78 42 WNW 1008,1 9 0,2
13.01.2019 16:00:00 8,3 4,9 - - 55 30 85 46 WNW 1007,5 11 0,2
13.01.2019 15:00:00 8,2 4,9 - - 54 29 74 40 WNW 1007,4 9 0,0
13.01.2019 14:00:00 7,9 5,2 - - 52 28 78 42 WNW 1007,1 10 0,4
13.01.2019 13:00:00 8,5 3,8 - - 52 28 74 40 WNW 1007,4 10 0,0
13.01.2019 12:00:00 - - - - - - - - - - - 0,0
13.01.2019 11:00:00 - - - - - - - - - - - 0,4
13.01.2019 10:00:00 - - - - - - - - - - - 0,0
13.01.2019 09:00:00 - - - - - - - - - - - 0,0
13.01.2019 08:00:00 - - - - - - - - - - - 0,0
13.01.2019 07:00:00 - - - - - - - - - - - 0,0
13.01.2019 06:00:00 9,8 6,5 - - 52 28 74 40 W 1006,7 8 0,0
13.01.2019 05:00:00 9,9 7,5 - - 57 31 76 41 W 1006,8 11 0,0
13.01.2019 04:00:00 9,9 9,0 - - 52 28 76 41 W 1007,2 8 0,0
13.01.2019 03:00:00 9,9 9,5 - - 50 27 70 38 W 1007,7 5 0,2
13.01.2019 02:00:00 9,9 9,6 - - 48 26 67 36 W 1008,3 2,9 0,0
13.01.2019 01:00:00 10,0 9,8 - - 50 27 65 35 W 1008,9 6 0,2
13.01.2019 00:00:00 9,9 9,7 - - 50 27 68 37 W 1009,4 3,0 0,2
12.01.2019 23:00:00 9,8 9,4 - - 46 25 65 35 W 1010,1 2,4 0,0
12.01.2019 22:00:00 10,0 8,9 - - 52 28 68 37 W 1010,7 3,9 0,0
12.01.2019 21:00:00 10,1 8,6 - - 54 29 67 36 W 1011,1 4,7 0,0
12.01.2019 20:00:00 10,1 8,4 - - 46 25 65 35 W 1011,9 5 0,0
12.01.2019 19:00:00 10,1 8,4 - - 50 27 65 35 W 1012,2 5 0,2
12.01.2019 18:00:00 10,0 8,5 - - 46 25 59 32 W 1012,7 4,4 0,2
12.01.2019 17:00:00 10,2 8,5 - - 42 23 57 31 W 1013,0 6 0,0
12.01.2019 16:00:00 10,2 8,9 - - 37 20 52 28 W 1013,2 6 0,0
12.01.2019 15:00:00 9,9 9,1 - - 39 21 57 31 W 1013,2 4,8 0,2
12.01.2019 14:00:00 9,9 9,3 - - 42 23 59 32 W 1013,7 3,9 0,0
12.01.2019 13:00:00 10,0 9,5 - - 42 23 57 31 W 1013,8 6 0,2
12.01.2019 12:00:00 9,6 9,2 - - 37 20 50 27 W 1014,2 2,9 0,8
12.01.2019 11:00:00 9,0 8,5 - - 34 18 54 29 W 1015,1 1,9 1,0
12.01.2019 10:00:00 8,5 7,8 - - 37 20 57 31 W 1015,7 2,1 0,4
12.01.2019 09:00:00 8,2 6,4 7,7 8,0 44 24 59 32 W 1016,1 2,4 0,0
12.01.2019 08:00:00 8,8 7,0 - - 44 24 57 31 W 1016,2 10 0,0
12.01.2019 07:00:00 8,6 6,8 - - 41 22 68 37 W 1016,3 10 0,2
12.01.2019 06:00:00 9,0 6,1 - - 41 22 65 35 W 1016,5 15 0,0
12.01.2019 05:00:00 8,6 6,7 - - 41 22 59 32 W 1016,9 14 0,0
12.01.2019 04:00:00 8,7 6,1 - - 44 24 67 36 W 1017,0 9 0,0
12.01.2019 03:00:00 8,9 6,3 - - 41 22 59 32 W 1017,1 9 0,0
12.01.2019 02:00:00 8,6 6,3 - - 41 22 57 31 W 1017,3 11 0,0
12.01.2019 01:00:00 8,5 6,5 - - 41 22 59 32 W 1017,3 3,9 0,2
12.01.2019 00:00:00 9,0 6,6 - - 42 23 63 34 W 1017,7 8 0,0
11.01.2019 23:00:00 8,6 6,6 - - 46 25 65 35 W 1017,9 14 0,0
11.01.2019 22:00:00 9,4 7,0 - - 46 25 65 35 W 1018,3 11 0,0
11.01.2019 21:00:00 9,2 8,4 - - 41 22 76 41 W 1018,6 9 0,6
11.01.2019 20:00:00 9,5 9,1 - - 46 25 63 34 SW 1018,9 2,6 0,4
11.01.2019 19:00:00 9,3 8,7 - - 41 22 54 29 SW 1020,6 4,3 0,0
11.01.2019 18:00:00 9,0 8,2 - - 39 21 54 29 SW 1022,1 13 0,0
11.01.2019 17:00:00 8,5 7,6 - - 35 19 48 26 SW 1023,3 16 0,0
11.01.2019 16:00:00 8,6 7,5 - - 24 13 - - SSW 1024,5 17 0,0
11.01.2019 15:00:00 8,6 7,7 - - 24 13 - - WSW 1025,4 40 0,2
11.01.2019 14:00:00 8,3 7,7 - - 16 9 - - W 1026,5 1,5 0,6
11.01.2019 13:00:00 8,4 7,6 - - 13 7 - - W 1027,4 1,8 0,2
11.01.2019 12:00:00 9,1 7,9 - - 21 11 - - SW 1028,2 19 0,0
11.01.2019 11:00:00 9,0 8,1 - - 13 7 - - SW 1028,8 12 0,0
11.01.2019 10:00:00 8,4 7,3 - - 9 5 - - W 1029,1 11 0,0
11.01.2019 09:00:00 8,7 8,0 7,4 8,0 15 8 - - WSW 1029,7 18 0,0
11.01.2019 08:00:00 8,5 7,7 - - 16 9 - - WSW 1029,8 13 0,0
11.01.2019 07:00:00 9,2 8,2 - - 22 12 - - SW 1029,6 11 0,0
11.01.2019 06:00:00 9,1 8,0 - - 16 9 - - SW 1030,1 12 0,0
11.01.2019 05:00:00 9,1 7,7 - - 22 12 - - WSW 1030,6 15 0,0
11.01.2019 04:00:00 9,2 7,6 - - 22 12 - - WSW 1031,0 16 0,0
11.01.2019 03:00:00 9,4 6,9 - - 21 11 - - W 1031,3 17 0,0
11.01.2019 02:00:00 9,2 5,9 - - 16 9 - - W 1031,3 35 0,0
11.01.2019 01:00:00 9,3 6,1 - - 18 10 - - WNW 1031,6 22 0,0
11.01.2019 00:00:00 8,5 6,4 - - 9 5 - - W 1031,7 16 0,0

tt = Température de l'air
td = dewpoint
tt -20cm = Température de l'air -20cm
tt -100cm = Température de l'air -100cm
ff = Vitesse du vent
fx = gusts
dd = Direction du vent
ppp = reduced air pressure
vv = visibility
rr = Quantités de précipitations

stations d'obs. à proximité